Location: Newark
(25.6108°S, 54.5803°W)
Time: 21:40:30
(UTC+00:00)

Courier 1B - Pass Details

Date: 28 October 2020
Orbit: 962 x 1209 km, 28.3° (Epoch: 24 November)

Event Time Altitude Azimuth Distance (km) Brightness Sun altitude
Rises 22:18:40 0° 344° (NNW) 3,804 10.6 -6.5°
Reaches altitude 10° 22:23:21 10° 12° (NNE) 2,919 9.7 -7.5°
Maximum altitude 22:26:07 12° 35° (NE) 2,778 9.4 -8.1°
Drops below altitude 10° 22:28:55 10° 57° (ENE) 2,998 9.4 -8.7°
Enters shadow 22:29:13 10° 59° (ENE) 3,039 9.4 -8.8°
Sets 22:33:52 0° 84° (E) 4,022 - -9.7°
